DW4554 Weather Reports


Display with metric or nautical units.
time (UTC)temp
F
wind
direction
speed
MPH
gust
MPH
rain 1hr
in
rain 24hr
in
rain mn
in
humidity
%
barometer
mb
20260504043404 51 34 0.0 3.0 0.00 0.00 0.00 66 1014.4
20260504042905 51 129 1.0 3.0 0.00 0.00 0.00 67 1014.3
20260504041904 50 42 1.0 2.0 0.00 0.00 0.00 67 1014.3
20260504041404 50 42 1.0 3.0 0.00 0.00 0.00 67 1014.3
20260504040904 50 48 1.0 3.0 0.00 0.00 0.00 68 1014.3
20260504040405 50 54 1.0 3.0 0.00 0.00 0.00 68 1014.3
20260504035404 49 70 1.0 3.0 0.00 0.00 0.00 68 1014.4
20260504034904 49 69 1.0 3.0 0.00 0.00 0.00 67 1014.4
20260504034404 50 59 1.0 3.0 0.00 0.00 0.00 67 1014.4
20260504033904 50 61 1.0 3.0 0.00 0.00 0.00 67 1014.5
20260504033404 50 76 0.0 2.0 0.00 0.00 0.00 66 1014.4
20260504032904 50 76 1.0 3.0 0.00 0.00 0.00 66 1014.5
20260504031404 50 182 0.0 2.0 0.00 0.00 0.00 65 1014.6
20260504030904 50 193 0.0 2.0 0.00 0.00 0.00 65 1014.6
20260504030404 50 202 0.0 2.0 0.00 0.00 0.00 64 1014.5
20260504025904 50 58 1.0 2.0 0.00 0.00 0.00 65 1014.5
20260504025405 50 56 1.0 3.0 0.00 0.00 0.00 64 1014.5
20260504024904 50 56 1.0 3.0 0.00 0.00 0.00 64 1014.5
20260504024404 51 56 1.0 3.0 0.00 0.00 0.00 64 1014.5
20260504023404 51 59 1.0 3.0 0.00 0.00 0.00 64 1014.5
20260504022920 51 73 1.0 2.0 0.00 0.00 0.00 63 1014.3
20260504021904 51 73 1.0 3.0 0.00 0.00 0.00 62 1014.2
20260504020905 51 72 1.0 3.0 0.00 0.00 0.00 62 1014.2
20260504020404 51 71 1.0 5.0 0.00 0.00 0.00 61 1014.2
20260504015907 52 56 0.0 2.0 0.00 0.00 0.00 61 1014.2
20260504015404 52 57 1.0 3.0 0.00 0.00 0.00 61 1014.2
20260504014904 52 57 2.0 3.0 0.00 0.00 0.00 60 1014.2
20260504014404 52 57 2.0 3.0 0.00 0.00 0.00 60 1014.2
20260504013904 52 61 2.0 3.0 0.00 0.00 0.00 60 1014.2
20260504013404 52 55 2.0 3.0 0.00 0.00 0.00 59 1014.2
20260504012904 53 56 2.0 3.0 0.00 0.00 0.00 59 1014.2
20260504012404 53 56 1.0 2.0 0.00 0.00 0.00 58 1014.3
20260504011904 53 56 1.0 2.0 0.00 0.00 0.00 58 1014.2
20260504011405 53 56 1.0 3.0 0.00 0.00 0.00 58 1014.2
20260504010404 53 56 2.0 3.0 0.00 0.00 0.00 57 1014.2
20260504005904 53 59 2.0 3.0 0.00 0.00 0.00 57 1014.2
20260504005405 53 98 1.0 2.0 0.00 0.00 0.00 57 1014.2
20260504004404 54 55 1.0 3.0 0.00 0.00 0.00 56 1014.2
20260504003904 54 75 1.0 3.0 0.00 0.00 0.00 56 1014.2
20260504003404 54 77 1.0 3.0 0.00 0.00 0.00 55 1014.3
20260504002904 55 73 1.0 2.0 0.00 0.00 0.00 55 1014.3
20260504002404 55 73 1.0 3.0 0.00 0.00 0.00 54 1014.3
20260504001405 56 65 1.0 2.0 0.00 0.00 0.00 53 1014.3
20260504000404 56 63 0.0 2.0 0.00 0.00 0.00 52 1014.3
20260503235904 56 63 1.0 3.0 0.00 0.00 0.00 51 1014.4
20260503235405 56 62 1.0 3.0 0.00 0.00 0.00 51 1014.4
20260503234404 57 80 1.0 3.0 0.00 0.00 0.00 50 1014.4
20260503233904 57 134 1.0 5.0 0.00 0.00 0.00 49 1014.4
20260503233404 57 61 1.0 3.0 0.00 0.00 0.00 49 1014.4
20260503232905 57 91 0.0 3.0 0.00 0.00 0.00 49 1014.4
20260503232404 57 68 1.0 3.0 0.00 0.00 0.00 49 1014.4
20260503231404 57 132 2.0 9.0 0.00 0.00 0.00 48 1014.4
20260503230905 57 66 1.0 18.0 0.00 0.00 0.00 49 1014.4
20260503230404 57 158 1.0 6.0 0.00 0.00 0.00 49 1014.4
20260503225904 57 126 2.0 5.0 0.00 0.00 0.00 49 1014.4
20260503225404 58 68 1.0 5.0 0.00 0.00 0.00 49 1014.4
20260503224905 58 293 1.0 5.0 0.00 0.00 0.00 49 1014.5
20260503224404 58 84 1.0 3.0 0.00 0.00 0.00 49 1014.5
20260503223905 58 109 1.0 7.0 0.00 0.00 0.00 49 1014.5
20260503223405 58 10 2.0 5.0 0.00 0.00 0.00 49 1014.4
20260503222904 58 67 2.0 5.0 0.00 0.00 0.00 49 1014.5
20260503222405 58 60 1.0 5.0 0.00 0.00 0.00 49 1014.5
20260503221904 58 50 1.0 3.0 0.00 0.00 0.00 49 1014.6
20260503221404 58 70 1.0 3.0 0.00 0.00 0.00 49 1014.6
20260503220904 58 97 2.0 6.0 0.00 0.00 0.00 49 1014.5
20260503220404 58 78 1.0 5.0 0.00 0.00 0.00 49 1014.6
20260503215905 58 24 2.0 5.0 0.00 0.00 0.00 50 1014.6
20260503215404 58 65 2.0 5.0 0.00 0.00 0.00 50 1014.6
20260503214904 57 56 1.0 5.0 0.00 0.00 0.00 50 1014.6
20260503214404 57 129 1.0 6.0 0.00 0.00 0.00 50 1014.6
20260503213404 57 92 1.0 5.0 0.00 0.00 0.00 51 1014.7
20260503212904 57 55 2.0 6.0 0.00 0.00 0.00 51 1014.7
20260503211904 57 100 2.0 7.0 0.00 0.00 0.00 51 1014.7
20260503211404 57 75 1.0 3.0 0.00 0.00 0.00 51 1014.7
20260503210908 57 83 1.0 3.0 0.00 0.00 0.00 52 1014.7
20260503205904 57 71 1.0 3.0 0.00 0.00 0.00 52 1014.8
20260503204904 57 69 1.0 3.0 0.00 0.00 0.00 52 1014.9
20260503204404 57 67 1.0 2.0 0.00 0.00 0.00 52 1014.9
20260503203904 58 64 1.0 2.0 0.00 0.00 0.00 52 1014.9
20260503203404 58 63 0.0 2.0 0.00 0.00 0.00 52 1014.9
20260503202904 58 63 1.0 3.0 0.00 0.00 0.00 51 1015.0
20260503202405 58 59 2.0 3.0 0.00 0.00 0.00 51 1014.9
20260503201904 58 85 2.0 3.0 0.00 0.00 0.00 50 1015.0
20260503201404 58 96 1.0 2.0 0.00 0.00 0.00 50 1015.0
20260503200904 59 96 1.0 2.0 0.00 0.00 0.00 50 1015.0
20260503200404 59 98 1.0 5.0 0.00 0.00 0.00 49 1015.0
20260503195905 59 90 1.0 2.0 0.00 0.00 0.00 49 1015.0
20260503195404 59 92 1.0 3.0 0.00 0.00 0.00 49 1015.0
20260503194904 59 54 2.0 3.0 0.00 0.00 0.00 49 1015.0
20260503194404 59 50 2.0 3.0 0.00 0.00 0.00 49 1015.0
20260503193904 60 51 1.0 3.0 0.00 0.00 0.00 49 1015.1
20260503193404 60 52 1.0 3.0 0.00 0.00 0.00 49 1015.1
20260503192904 60 50 2.0 3.0 0.00 0.00 0.00 48 1015.1
20260503191905 61 60 1.0 3.0 0.00 0.00 0.00 48 1015.0
20260503191404 62 59 2.0 3.0 0.00 0.00 0.00 47 1015.0
20260503190904 62 73 2.0 3.0 0.00 0.00 0.00 47 1014.9
20260503190404 63 84 2.0 3.0 0.00 0.00 0.00 47 1014.9
20260503185904 63 71 1.0 3.0 0.00 0.00 0.00 47 1014.9
20260503185404 64 147 2.0 3.0 0.00 0.00 0.00 46 1014.9
20260503184405 65 147 1.0 3.0 0.00 0.00 0.00 43 1014.9
20260503183904 66 147 1.0 2.0 0.00 0.00 0.00 42 1014.8
20260503183405 66 147 0.0 2.0 0.00 0.00 0.00 40 1014.8
20260503182904 67 147 1.0 2.0 0.00 0.00 0.00 39 1014.7
20260503182404 67 147 1.0 3.0 0.00 0.00 0.00 38 1014.6
20260503181904 67 147 1.0 3.0 0.00 0.00 0.00 37 1014.6
20260503181404 68 147 1.0 3.0 0.00 0.00 0.00 37 1014.5
20260503180905 68 147 1.0 3.0 0.00 0.00 0.00 37 1014.5
20260503175904 69 157 1.0 3.0 0.00 0.00 0.00 36 1014.5
20260503175405 69 161 1.0 5.0 0.00 0.00 0.00 35 1014.4
20260503174904 69 138 1.0 7.0 0.00 0.00 0.00 35 1014.4
20260503174405 69 177 1.0 5.0 0.00 0.00 0.00 35 1014.4
20260503173404 70 164 1.0 5.0 0.00 0.00 0.00 34 1014.4
20260503172404 70 150 3.0 7.0 0.00 0.00 0.00 33 1014.3
20260503171904 71 156 1.0 7.0 0.00 0.00 0.00 33 1014.4
20260503171404 71 183 3.0 6.0 0.00 0.00 0.00 32 1014.3
20260503170904 71 197 3.0 9.0 0.00 0.00 0.00 32 1014.3
20260503170405 71 198 3.0 7.0 0.00 0.00 0.00 31 1014.3
20260503150904 78 176 4.0 8.0 0.00 0.00 0.00 30 1014.4
20260503150405 78 169 5.0 10.0 0.00 0.00 0.00 31 1014.6
20260503131404 78 194 9.0 15.0 0.00 0.00 0.00 32 1015.8
20260503130904 78 210 4.0 9.0 0.00 0.00 0.00 33 1015.8
20260503110405 73 142 2.0 6.0 0.00 0.00 0.00 38 1016.9
20260503090405 70 191 2.0 9.0 0.00 0.00 0.00 40 1017.9
20260503081405 68 136 1.0 6.0 0.00 0.00 0.00 42 1018.1
20260503080904 68 158 2.0 5.0 0.00 0.00 0.00 44 1018.0
20260503080404 67 174 2.0 8.0 0.00 0.00 0.00 43 1018.1
20260503072904 66 178 5.0 10.0 0.00 0.00 0.00 44 1018.1
20260503072404 66 185 4.0 9.0 0.00 0.00 0.00 45 1018.1
20260503071904 65 160 1.0 5.0 0.00 0.00 0.00 46 1018.0
20260503071405 65 37 1.0 5.0 0.00 0.00 0.00 47 1017.9
20260503070904 65 140 1.0 3.0 0.00 0.00 0.00 47 1018.0
20260503070404 64 134 1.0 7.0 0.00 0.00 0.00 48 1018.0
20260503054904 53 59 2.0 5.0 0.00 0.00 0.00 70 1017.9
20260503054404 52 50 3.0 5.0 0.00 0.00 0.00 72 1017.8
20260503053904 51 82 3.0 5.0 0.00 0.00 0.00 75 1017.9
20260503053404 51 49 2.0 3.0 0.00 0.00 0.00 77 1017.9
20260503052904 50 50 2.0 3.0 0.00 0.00 0.00 78 1017.9
20260503052404 50 29 2.0 3.0 0.00 0.00 0.00 79 1017.9
20260503051904 49 60 1.0 3.0 0.00 0.00 0.00 79 1017.9
20260503051404 49 60 2.0 3.0 0.00 0.00 0.00 80 1017.9
20260503050905 49 60 2.0 3.0 0.00 0.00 0.00 80 1017.9
20260503050404 48 60 2.0 3.0 0.00 0.00 0.00 81 1018.0
20260503045904 48 60 2.0 3.0 0.00 0.00 0.00 81 1018.0